SEH430 LGAV-LGSK

Flight info

Callsign SEH430
Flight time 0h 32m
Altitude 16000
Route ROPOX M749 SIGFO
Aircraft A320/M-SDE3FGHIRWY/LB1

Departure

Time 2026-04-22 05:59
Airport Athens Eleftherios Venizelos International Airport (LGAV)

Arrival

Time 2026-04-22 06:31
Airport Skiathos Island National Airport (LGSK)
Time Latitude Longitude Altitude Speed Heading
2026-04-22 03:12 37.93605 23.94839 301 ft 0 kts 307°
2026-04-22 05:41 37.93603 23.94842 301 ft 3 kts 307°
2026-04-22 05:41 37.93588 23.94870 302 ft 4 kts 301°
2026-04-22 05:41 37.93575 23.94900 301 ft 4 kts 286°
2026-04-22 05:42 37.93573 23.94931 301 ft 4 kts 235°
2026-04-22 05:42 37.93580 23.94941 301 ft 1 kts 217°
2026-04-22 05:42 37.93581 23.94942 301 ft 0 kts 217°
2026-04-22 05:46 37.93552 23.94914 301 ft 12 kts 217°
2026-04-22 05:46 37.93486 23.94854 301 ft 11 kts 207°
2026-04-22 05:46 37.93433 23.94890 302 ft 9 kts 124°
2026-04-22 05:46 37.93380 23.94984 301 ft 16 kts 142°
2026-04-22 05:47 37.93308 23.94956 300 ft 8 kts 215°
2026-04-22 05:47 37.93234 23.94888 302 ft 16 kts 217°
2026-04-22 05:47 37.93140 23.94798 300 ft 18 kts 217°
2026-04-22 05:47 37.93034 23.94697 302 ft 23 kts 217°
2026-04-22 05:48 37.92899 23.94569 302 ft 25 kts 217°
2026-04-22 05:48 37.92758 23.94436 303 ft 26 kts 217°
2026-04-22 05:48 37.92612 23.94298 303 ft 27 kts 216°
2026-04-22 05:48 37.92483 23.94175 303 ft 19 kts 215°
2026-04-22 05:49 37.92411 23.94209 305 ft 6 kts 95°
2026-04-22 05:49 37.92411 23.94214 305 ft 0 kts 88°
2026-04-22 05:57 37.92412 23.94243 305 ft 11 kts 89°
2026-04-22 05:58 37.92413 23.94353 309 ft 11 kts 89°
2026-04-22 05:58 37.92454 23.94424 309 ft 13 kts 37°
2026-04-22 05:58 37.92716 23.94672 303 ft 92 kts 37°
2026-04-22 05:58 37.93456 23.95375 292 ft 169 kts 37°
2026-04-22 05:59 37.94456 23.96326 963 ft 181 kts 37°
2026-04-22 05:59 37.95460 23.97299 2022 ft 182 kts 36°
2026-04-22 05:59 37.96485 23.98281 2718 ft 190 kts 35°
2026-04-22 05:59 37.97608 23.99350 3055 ft 214 kts 34°
2026-04-22 06:00 37.98857 24.00539 3416 ft 236 kts 34°
2026-04-22 06:00 38.00226 24.01849 4020 ft 253 kts 34°
2026-04-22 06:00 38.01646 24.03215 4941 ft 260 kts 34°
2026-04-22 06:00 38.03101 24.04614 5793 ft 265 kts 34°
2026-04-22 06:01 38.04564 24.06023 6652 ft 270 kts 34°
2026-04-22 06:01 38.06071 24.07479 7509 ft 274 kts 34°
2026-04-22 06:01 38.07567 24.08923 8355 ft 277 kts 34°
2026-04-22 06:01 38.08952 24.10712 8953 ft 298 kts 58°
2026-04-22 06:02 38.09532 24.13267 9656 ft 309 kts 89°
2026-04-22 06:02 38.09116 24.15932 10408 ft 312 kts 117°
2026-04-22 06:02 38.07798 24.18112 10988 ft 319 kts 145°
2026-04-22 06:02 38.05770 24.19298 11261 ft 329 kts 175°
2026-04-22 06:03 38.03477 24.19091 11525 ft 337 kts 204°
2026-04-22 06:03 38.01539 24.17481 12065 ft 335 kts 232°
2026-04-22 06:03 38.00338 24.14975 12793 ft 334 kts 247°
2026-04-22 06:03 37.99407 24.12263 13605 ft 335 kts 250°
2026-04-22 06:04 37.98550 24.09503 14340 ft 337 kts 251°
2026-04-22 06:04 37.97701 24.06716 15006 ft 341 kts 251°
2026-04-22 06:04 37.96827 24.03912 15648 ft 344 kts 251°
2026-04-22 06:04 37.95915 24.01092 15903 ft 346 kts 250°
2026-04-22 06:05 37.94967 23.98254 15973 ft 358 kts 250°
2026-04-22 06:05 37.93966 23.95304 15975 ft 368 kts 250°
2026-04-22 06:05 37.93015 23.92285 15973 ft 368 kts 257°
2026-04-22 06:05 37.92681 23.89099 15975 ft 365 kts 273°
2026-04-22 06:06 37.93122 23.85993 15975 ft 364 kts 289°
2026-04-22 06:06 37.94295 23.83150 15973 ft 367 kts 304°
2026-04-22 06:06 37.96105 23.80857 15980 ft 373 kts 321°
2026-04-22 06:06 37.98410 23.79321 15978 ft 380 kts 337°
2026-04-22 06:07 38.01032 23.78672 15977 ft 387 kts 348°
2026-04-22 06:07 38.03705 23.78280 15978 ft 387 kts 349°
2026-04-22 06:07 38.06390 23.77902 15959 ft 387 kts 349°
2026-04-22 06:07 38.09071 23.77528 15959 ft 387 kts 349°
2026-04-22 06:08 38.11748 23.77151 15961 ft 387 kts 348°
2026-04-22 06:08 38.14426 23.76767 15959 ft 387 kts 348°
2026-04-22 06:08 38.17104 23.76379 15956 ft 386 kts 348°
2026-04-22 06:08 38.19774 23.75992 15959 ft 387 kts 348°
2026-04-22 06:09 38.22453 23.75602 15966 ft 388 kts 348°
2026-04-22 06:09 38.24235 23.75345 15967 ft 388 kts 348°
2026-04-22 06:09 38.26912 23.74962 15970 ft 388 kts 348°
2026-04-22 06:09 38.29601 23.74576 15976 ft 388 kts 348°
2026-04-22 06:10 38.32282 23.74189 15978 ft 388 kts 348°
2026-04-22 06:10 38.34961 23.73799 15984 ft 388 kts 348°
2026-04-22 06:10 38.37644 23.73404 15989 ft 388 kts 348°
2026-04-22 06:10 38.40325 23.73010 15993 ft 388 kts 348°
2026-04-22 06:11 38.42994 23.72621 15929 ft 381 kts 348°
2026-04-22 06:11 38.45590 23.72251 15699 ft 369 kts 348°
2026-04-22 06:11 38.48124 23.71892 15477 ft 364 kts 348°
2026-04-22 06:11 38.50636 23.71530 15256 ft 362 kts 348°
2026-04-22 06:12 38.53141 23.71163 15039 ft 362 kts 348°
2026-04-22 06:12 38.55609 23.70799 14817 ft 361 kts 348°
2026-04-22 06:12 38.58136 23.70425 14519 ft 361 kts 348°
2026-04-22 06:12 38.60593 23.70066 14185 ft 360 kts 348°
2026-04-22 06:13 38.63081 23.69702 13862 ft 359 kts 348°
2026-04-22 06:13 38.65557 23.69339 13497 ft 358 kts 349°
2026-04-22 06:13 38.68024 23.68977 13126 ft 356 kts 349°
2026-04-22 06:13 38.70478 23.68619 12710 ft 354 kts 349°
2026-04-22 06:14 38.72917 23.68264 12292 ft 352 kts 349°
2026-04-22 06:14 38.75343 23.67908 11896 ft 349 kts 349°
2026-04-22 06:14 38.77734 23.67556 11489 ft 343 kts 349°
2026-04-22 06:14 38.80082 23.67212 11094 ft 337 kts 349°
2026-04-22 06:15 38.82393 23.66873 10702 ft 332 kts 349°
2026-04-22 06:15 38.84675 23.66537 10302 ft 328 kts 349°
2026-04-22 06:15 38.86928 23.66203 9871 ft 325 kts 349°
2026-04-22 06:15 38.89168 23.65871 9404 ft 322 kts 349°
2026-04-22 06:16 38.91386 23.65546 8931 ft 320 kts 350°
2026-04-22 06:16 38.93548 23.65232 8533 ft 304 kts 350°
2026-04-22 06:16 38.95592 23.65007 8227 ft 288 kts 359°
2026-04-22 06:16 38.97513 23.65655 7926 ft 290 kts 26°
2026-04-22 06:17 38.99084 23.67289 7630 ft 293 kts 41°
2026-04-22 06:17 39.00610 23.69008 7337 ft 291 kts 36°
2026-04-22 06:17 39.02185 23.70638 7032 ft 290 kts 36°
2026-04-22 06:17 39.03761 23.72253 6749 ft 290 kts 36°
2026-04-22 06:18 39.05344 23.73836 6531 ft 286 kts 31°
2026-04-22 06:18 39.07046 23.75145 6335 ft 284 kts 26°
2026-04-22 06:18 39.08776 23.76383 6131 ft 284 kts 25°
2026-04-22 06:18 39.10505 23.77606 5931 ft 283 kts 25°
2026-04-22 06:19 39.12209 23.78807 5723 ft 275 kts 25°
2026-04-22 06:19 39.13856 23.79974 5488 ft 266 kts 25°
2026-04-22 06:19 39.15463 23.81102 5252 ft 259 kts 22°
2026-04-22 06:19 39.17127 23.81622 5001 ft 244 kts 353°
2026-04-22 06:20 39.18685 23.81017 4750 ft 230 kts 325°
2026-04-22 06:20 39.20026 23.79931 4505 ft 226 kts 325°
2026-04-22 06:20 39.21354 23.78871 4242 ft 222 kts 324°
2026-04-22 06:20 39.22432 23.77533 4049 ft 212 kts 299°
2026-04-22 06:21 39.22911 23.75774 4007 ft 203 kts 274°
2026-04-22 06:21 39.22746 23.74034 4006 ft 193 kts 250°
2026-04-22 06:21 39.22175 23.72483 4008 ft 191 kts 245°
2026-04-22 06:21 39.21593 23.70947 4009 ft 191 kts 245°
2026-04-22 06:22 39.21019 23.69408 4009 ft 190 kts 246°
2026-04-22 06:22 39.20449 23.67871 4011 ft 190 kts 245°
2026-04-22 06:22 39.19866 23.66341 4009 ft 190 kts 245°
2026-04-22 06:22 39.19285 23.64815 4009 ft 190 kts 245°
2026-04-22 06:23 39.18637 23.63340 4008 ft 189 kts 237°
2026-04-22 06:23 39.17803 23.62025 4009 ft 190 kts 227°
2026-04-22 06:23 39.16799 23.60906 4010 ft 192 kts 218°
2026-04-22 06:23 39.15643 23.60017 4010 ft 194 kts 209°
2026-04-22 06:24 39.13223 23.58438 3902 ft 197 kts 210°
2026-04-22 06:24 39.11998 23.57632 3647 ft 198 kts 209°
2026-04-22 06:24 39.10767 23.56826 3411 ft 199 kts 208°
2026-04-22 06:25 39.09524 23.56014 3152 ft 201 kts 207°
2026-04-22 06:25 39.08268 23.55200 2877 ft 203 kts 207°
2026-04-22 06:25 39.07003 23.54375 2603 ft 205 kts 207°
2026-04-22 06:25 39.05742 23.53553 2349 ft 206 kts 207°
2026-04-22 06:26 39.04451 23.52718 2061 ft 208 kts 207°
2026-04-22 06:26 39.03177 23.51885 1911 ft 203 kts 210°
2026-04-22 06:26 39.02212 23.50639 1679 ft 195 kts 246°
2026-04-22 06:26 39.01999 23.49022 1600 ft 176 kts 280°
2026-04-22 06:27 39.02408 23.47676 1593 ft 154 kts 309°
2026-04-22 06:27 39.03181 23.46807 1605 ft 145 kts 333°
2026-04-22 06:27 39.04129 23.46461 1611 ft 141 kts 358°
2026-04-22 06:27 39.05098 23.46640 1619 ft 141 kts 12°
2026-04-22 06:28 39.06053 23.46920 1613 ft 140 kts 12°
2026-04-22 06:28 39.07002 23.47198 1613 ft 140 kts 13°
2026-04-22 06:28 39.07939 23.47469 1628 ft 136 kts 12°
2026-04-22 06:28 39.08856 23.47738 1567 ft 134 kts 13°
2026-04-22 06:29 39.09763 23.47996 1461 ft 133 kts 12°
2026-04-22 06:29 39.10671 23.48198 1331 ft 133 kts
2026-04-22 06:29 39.11587 23.48315 1113 ft 131 kts
2026-04-22 06:29 39.12493 23.48374 931 ft 130 kts
2026-04-22 06:30 39.13395 23.48460 647 ft 129 kts
2026-04-22 06:30 39.14253 23.48806 429 ft 129 kts 19°
2026-04-22 06:30 39.15083 23.49213 291 ft 130 kts 14°
2026-04-22 06:30 39.15940 23.49576 200 ft 130 kts 14°
2026-04-22 06:31 39.16793 23.49954 68 ft 129 kts 13°
2026-04-22 06:31 39.17580 23.50299 36 ft 88 kts 19°
2026-04-22 06:31 39.17915 23.50440 42 ft 8 kts 355°
2026-04-22 06:31 39.17929 23.50393 42 ft 5 kts 268°
2026-04-22 06:32 39.17918 23.50360 41 ft 3 kts 230°
2026-04-22 06:32 39.17890 23.50337 42 ft 6 kts 205°
2026-04-22 06:32 39.17866 23.50320 40 ft 1 kts 212°
2026-04-22 06:32 39.17837 23.50295 42 ft 9 kts 207°
2026-04-22 06:33 39.17790 23.50271 41 ft 6 kts 199°
2026-04-22 06:33 39.17764 23.50259 40 ft 2 kts 199°
2026-04-22 06:33 39.17758 23.50257 40 ft 5 kts 199°
2026-04-22 06:33 39.17704 23.50238 38 ft 7 kts 190°
2026-04-22 06:34 39.17653 23.50225 36 ft 0 kts 199°
2026-04-22 06:34 39.17635 23.50215 35 ft 4 kts 203°
2026-04-22 06:34 39.17606 23.50205 35 ft 5 kts 195°
2026-04-22 06:35 39.17599 23.50174 34 ft 4 kts 288°
2026-04-22 06:35 39.17601 23.50167 34 ft 0 kts 288°
2026-04-22 06:35 39.17603 23.50157 34 ft 2 kts 289°
2026-04-22 06:36 39.17613 23.50148 33 ft 1 kts 337°
2026-04-22 06:36 39.17624 23.50155 34 ft 2 kts 30°
2026-04-22 06:36 39.17629 23.50161 34 ft 0 kts 45°
2026-04-22 06:36 39.17629 23.50172 34 ft 1 kts 94°
2026-04-22 06:37 39.17628 23.50174 34 ft 1 kts 101°
2026-04-22 06:37 39.17627 23.50179 34 ft 1 kts 107°
2026-04-22 06:37 39.17626 23.50180 34 ft 0 kts 108°
2026-04-22 06:37 39.18407 23.50667 57 ft 0 kts 199°
2026-04-22 06:38 39.17611 23.50175 33 ft 0 kts 281°
2026-04-22 06:38 39.17603 23.50154 35 ft 0 kts 281°
2026-04-22 06:39 39.17630 23.50173 34 ft 0 kts 109°
2026-04-22 06:39 39.17633 23.50180 36 ft 0 kts 109°
2026-04-22 06:39 39.17625 23.50177 34 ft 0 kts 109°
2026-04-22 06:40 39.17611 23.50175 33 ft 0 kts 281°